This is the latest recevied weather packets stored in our database for station/object W4OCD. If no packets are shown the sender has not sent any weather packets the latest 10 day(s).
| Time | Temp. | Humidity | Pressure | Rain* | Wind** | Luminosity | Snow |
|---|---|---|---|---|---|---|---|
| 1777467769 | 17.78° C | 99% | 1016 hPa | 1.27 mm | - | 24 W/m² | - |
| 1777467160 | 17.78° C | 99% | 1016.1 hPa | 0 mm | - | 10 W/m² | - |
| 1777466556 | 17.78° C | 99% | 1015.6 hPa | 1.78 mm | - | 9 W/m² | - |
| 1777466252 | 17.78° C | 99% | 1015.5 hPa | 1.78 mm | - | 12 W/m² | - |
| 1777465948 | 17.78° C | 99% | 1015.8 hPa | 0 mm | - | 14 W/m² | - |
| 1777465644 | 17.78° C | 99% | 1015.5 hPa | 0 mm | - | 10 W/m² | - |
| 1777465340 | 17.78° C | 99% | 1015.4 hPa | 1.27 mm | - | 9 W/m² | - |
| 1777465039 | 17.78° C | 99% | 1015.6 hPa | 1.27 mm | - | 9 W/m² | - |
| 1777464734 | 17.78° C | 99% | 1016.1 hPa | 0 mm | - | 10 W/m² | - |
| 1777464431 | 17.78° C | 99% | 1016.2 hPa | 0 mm | - | 11 W/m² | - |
| 1777464126 | 17.78° C | 99% | 1016 hPa | 0 mm | - | 7 W/m² | - |
| 1777463217 | 17.78° C | 99% | 1015.3 hPa | 0 mm | - | 3 W/m² | - |
| 1777462609 | 17.78° C | 99% | 1015.3 hPa | 0 mm | - | 3 W/m² | - |
| 1777462305 | 17.78° C | 99% | 1015.3 hPa | 0 mm | - | 2 W/m² | - |
| 1777462001 | 17.78° C | 99% | 1015.7 hPa | 0 mm | - | 1 W/m² | - |
| 1777461698 | 17.78° C | 99% | 1015.2 hPa | 0 mm | - | 1 W/m² | - |
| 1777461094 | 17.78° C | 99% | 1015.7 hPa | 0 mm | - | 0 W/m² | - |
| 1777460182 | 17.78° C | 99% | 1015.5 hPa | 1.78 mm | - | 0 W/m² | - |
| 1777459880 | 17.78° C | 99% | 1015.7 hPa | 1.78 mm | - | 0 W/m² | - |
| 1777458972 | 17.78° C | 99% | 1015.7 hPa | 0 mm | - | 0 W/m² | - |
| 1777458668 | 17.78° C | 99% | 1015.5 hPa | 1.27 mm | - | 0 W/m² | - |
| 1777458060 | 17.78° C | 99% | 1015.5 hPa | 1.27 mm | - | 0 W/m² | - |
| 1777457756 | 17.78° C | 99% | 1016.3 hPa | 1.78 mm | - | 0 W/m² | - |
| 1777457451 | 17.78° C | 99% | 1016.9 hPa | 1.78 mm | - | 0 W/m² | - |
| 1777457146 | 17.78° C | 99% | 1017.4 hPa | 1.78 mm | - | 0 W/m² | - |
* Rain latest hour (hover to see other rain measurements)
** Current wind speed in m/s (hover to see current wind gust speed)